Wind_Speed
10 9 9 9 9 10 10 10 10 11 11 11 11 11 10 10 11 11 11 11 11 12 12 12 11 11 11 11 12 11 11 11 11 11 11 11 11 11 11 12 12 12 12 12
10 10 10 9 10 10 10 10 10 10 10 10 10 10 10 11 11 11 11 11 11 11 12 12 11 11 11 11 11 11 11 11 11 10 11 11 11 12 12 12 12 12 12 13
10 9 9 10 10 10 9 9 10 10 10 10 10 10 10 10 11 11 11 11 12 11 11 12 12 11 11 11 12 12 12 12 12 12 12 12 12 12 12 12 12 12 12 12
10 10 9 9 10 10 10 10 10 10 10 10 10 9 10 10 11 11 11 12 11 11 11 11 11 12 12 11 11 12 13 13 13 13 13 13 13 12 12 12 12 12 12 11
10 10 10 10 10 10 10 10 10 10 10 9 10 10 10 11 11 11 11 12 12 11 11 12 12 12 12 12 12 12 12 13 12 13 14 14 13 13 12 12 12 12 12 11
11 11 11 11 11 11 11 11 11 10 10 10 10 10 11 10 11 12 12 12 12 12 12 12 12 12 13 13 13 13 13 13 13 13 13 13 13 13 12 12 12 12 12 12
11 12 12 12 12 12 12 12 12 11 10 10 10 11 11 11 11 12 13 14 14 14 14 13 13 13 13 14 14 14 13 14 14 14 13 13 13 13 12 12 12 13 13 13
12 12 12 12 12 13 13 12 13 13 12 11 11 12 12 13 13 13 13 14 15 15 15 15 14 14 14 14 14 14 14 14 14 14 14 14 13 13 12 12 12 13 14 13
14 13 14 14 14 14 14 14 14 15 15 14 13 13 14 14 14 14 14 14 14 14 15 15 15 14 14 14 14 14 15 15 15 14 14 14 13 12 12 12 12 13 13 14
14 14 14 14 15 15 15 15 16 16 17 17 15 15 14 14 14 14 14 14 14 14 15 15 15 15 15 15 15 15 15 15 15 15 15 14 14 13 13 13 13 13 14 14
16 16 15 15 16 16 16 17 17 18 18 19 18 16 15 15 16 15 15 15 15 15 15 15 15 15 15 15 15 15 15 15 15 15 15 15 14 14 14 14 15 15 15 16
17 17 17 17 17 17 18 18 18 19 19 20 20 17 16 16 17 16 16 16 16 16 16 15 16 16 16 16 15 15 15 15 15 15 15 15 14 14 15 15 15 16 16 17
18 18 18 18 18 18 19 19 19 19 20 20 20 19 17 17 18 18 18 17 17 17 17 16 16 16 17 17 16 16 15 15 15 15 15 16 16 16 16 16 16 16 17 17
19 19 19 20 19 19 19 19 19 20 20 20 19 19 18 18 19 19 19 19 18 18 18 18 18 18 17 17 17 16 15 15 15 16 16 16 17 17 17 17 17 17 18 18
20 21 20 20 20 20 19 20 20 20 20 21 19 19 19 19 20 20 20 20 19 19 19 19 20 18 18 18 18 18 17 17 17 17 17 18 18 18 18 18 18 18 18 18
22 22 22 21 21 21 21 20 20 21 21 21 20 19 20 20 21 21 21 20 20 20 20 20 20 19 18 17 17 18 18 18 18 19 19 19 19 19 19 19 19 19 19 19
23 23 24 24 23 23 22 21 22 22 22 22 22 21 21 21 21 21 21 21 21 21 21 21 20 20 20 19 18 18 19 19 19 20 20 20 20 20 20 20 20 20 20 19
24 24 25 25 25 25 22 21 22 23 23 23 23 23 23 22 22 22 22 22 22 22 22 21 21 21 20 20 20 19 19 19 20 20 20 20 21 21 21 21 21 21 20 20
25 25 26 26 27 25 23 22 23 24 24 23 24 23 23 23 23 22 22 22 22 22 23 22 22 22 22 21 21 21 20 20 20 21 21 21 21 21 21 21 21 21 21 20
25 25 26 26 27 27 24 23 24 25 25 23 24 23 23 24 23 23 23 23 23 23 23 23 23 22 22 22 21 21 21 21 20 20 20 20 20 20 20 20 20 20 21 20
26 26 26 27 28 28 26 24 24 25 24 24 24 24 24 24 23 23 23 23 23 24 23 23 23 23 23 23 22 22 22 21 21 20 20 19 19 19 20 20 20 21 21 21
27 27 27 27 28 27 26 26 25 24 25 25 25 25 25 25 25 24 24 24 24 24 24 24 23 23 23 22 22 23 23 21 21 20 20 19 19 19 20 20 20 20 21 21
27 27 27 27 28 27 27 26 26 26 26 26 26 26 26 25 26 25 25 24 24 24 24 24 23 23 22 22 22 23 22 22 21 21 20 20 21 21 21 21 21 21 22 22
27 27 28 28 28 28 28 28 27 27 27 27 26 26 27 26 26 26 25 24 24 24 23 23 23 23 23 23 23 23 23 23 23 22 22 22 22 22 23 22 22 23 23 23
28 28 28 29 28 28 28 28 28 28 28 28 28 28 28 27 26 26 25 24 23 23 24 24 24 24 24 24 24 24 24 24 24 24 24 24 24 24 23 23 23 23 23 23
28 29 30 29 29 29 28 28 29 29 29 29 28 27 27 27 27 26 25 25 24 24 25 25 25 25 25 26 25 25 25 25 25 25 25 25 25 25 25 25 25 25 25 25
Wind_Direction
269 269 271 273 276 279 281 281 280 278 275 270 270 270 268 268 267 266 266 266 266 268 270 271 271 272 272 273 273 272 269 270 274 277 275 275 273 272 272 274 272 274 276 276
269 271 274 277 279 282 285 285 284 282 278 275 271 269 269 271 269 269 267 267 267 268 269 269 270 271 271 272 272 271 270 273 275 277 275 272 274 276 276 275 271 272 274 274
270 275 277 280 283 283 284 285 282 279 276 276 277 273 270 270 270 271 269 269 270 270 268 268 267 266 270 272 272 271 270 272 273 274 274 272 275 277 278 274 273 273 271 274
268 272 273 276 280 283 283 284 283 279 276 276 276 274 271 269 272 272 271 270 271 270 269 268 266 269 271 274 270 270 271 274 274 271 273 275 276 276 276 274 275 275 272 274
269 270 271 274 279 283 285 284 285 285 280 277 278 278 275 273 273 272 269 269 269 270 269 269 268 271 271 272 274 274 275 274 274 274 273 274 274 273 273 273 273 273 273 272
268 269 270 273 277 281 284 284 284 283 282 280 281 282 281 281 277 272 269 269 269 270 271 269 270 273 274 275 277 278 278 276 276 276 275 275 275 272 272 272 269 271 273 272
267 268 269 272 275 278 280 282 282 281 281 284 284 286 288 286 282 278 276 275 273 272 272 271 271 275 275 275 274 276 278 276 276 274 273 274 274 272 271 267 265 268 272 272
269 269 270 272 274 277 279 281 282 284 285 286 286 288 289 290 285 282 279 278 275 272 271 271 271 273 275 275 272 271 273 273 274 274 273 272 271 269 266 263 263 267 270 272
269 270 271 273 275 277 278 279 282 283 285 286 288 288 287 286 285 285 282 279 277 275 273 274 272 272 274 275 273 273 273 272 273 272 271 271 270 266 265 266 267 268 270 273
269 270 272 274 276 276 276 279 281 283 285 286 288 289 289 284 284 287 283 279 278 277 277 277 276 274 276 275 275 277 277 276 274 272 270 269 268 263 263 265 267 270 272 272
269 271 272 273 275 276 275 277 281 283 284 286 288 288 287 285 284 282 280 277 276 279 277 273 272 274 278 277 276 277 277 276 272 272 270 268 265 264 266 266 267 269 271 272
270 271 272 273 276 276 277 278 280 282 283 284 285 285 284 284 282 280 277 275 274 276 277 276 274 274 277 276 276 277 277 275 273 272 270 267 265 265 266 268 270 272 274 274
269 271 272 272 274 276 278 278 279 279 280 282 283 285 281 280 279 279 276 275 274 275 276 276 277 276 276 275 278 278 276 274 274 273 270 267 264 264 265 269 271 273 276 277
270 270 272 275 277 278 277 277 278 278 279 280 282 282 280 280 279 278 277 278 276 276 276 276 276 277 276 275 276 277 276 276 276 274 272 269 266 266 267 267 269 271 277 279
272 270 271 272 274 275 276 277 277 278 280 281 282 281 281 280 279 279 279 276 275 276 276 277 277 275 275 277 276 274 275 276 275 275 274 271 268 266 266 267 268 270 274 277
271 270 270 271 273 276 277 276 275 276 278 279 280 280 281 280 278 277 277 275 274 275 275 274 276 275 274 275 274 273 273 275 275 275 274 271 266 265 267 267 267 270 273 276
268 270 271 271 272 275 276 276 275 275 277 278 279 280 280 280 279 278 276 273 271 270 271 272 273 274 273 273 277 276 274 275 273 273 275 271 267 265 267 268 267 269 273 275
269 269 270 271 271 272 276 275 275 274 275 277 278 279 280 281 280 280 277 273 271 271 271 270 271 272 272 273 276 277 276 275 275 275 275 273 269 268 268 269 269 270 272 273
269 270 270 271 272 273 274 274 275 275 274 276 277 278 278 278 280 279 278 276 274 272 272 272 272 272 272 273 275 276 275 277 277 275 275 273 270 267 267 268 269 271 273 273
268 268 270 271 272 274 276 274 274 275 275 274 276 278 279 279 279 279 278 276 274 272 272 272 271 270 270 271 273 275 275 277 278 277 276 273 271 268 268 269 270 270 272 272
268 269 270 271 272 274 275 274 274 274 275 276 277 278 279 280 280 281 279 275 272 271 272 272 271 272 271 270 272 273 275 277 276 276 277 275 273 271 270 270 270 270 271 271
268 269 271 271 272 274 275 273 271 273 274 277 277 277 278 278 278 280 278 275 272 271 269 269 269 270 271 271 272 273 274 274 274 274 275 274 273 273 272 271 271 271 271 272
267 268 269 270 271 273 273 273 272 271 274 277 278 278 279 278 279 280 277 273 272 270 268 267 267 268 271 272 273 273 272 271 272 272 274 273 273 274 274 272 272 273 273 273
266 268 268 269 270 270 272 272 272 273 274 276 278 279 279 279 279 278 277 273 269 268 267 267 267 268 270 271 272 272 272 271 270 271 272 273 272 272 272 272 273 274 275 275
266 267 267 268 270 270 270 272 272 273 274 276 277 278 278 278 279 278 275 273 269 266 266 267 267 268 269 271 272 273 272 271 270 270 270 271 272 271 271 271 273 275 276 276
267 267 267 268 270 270 269 270 271 272 274 276 276 278 277 276 276 274 272 271 270 268 267 266 267 269 270 272 272 272 272 271 271 271 270 271 271 269 269 270 272 274 275 274
Height
5861 5862 5862 5862 5862 5862 5861 5861 5861 5860 5860 5860 5860 5860 5860 5860 5860 5860 5860 5860 5860 5860 5860 5860 5860 5860 5859 5859 5859 5859 5858 5858 5858 5857 5857 5857 5856 5856 5856 5855 5855 5855 5855 5855
5860 5860 5860 5860 5860 5859 5859 5859 5858 5858 5857 5858 5858 5858 5858 5857 5857 5858 5858 5858 5858 5857 5857 5857 5857 5857 5856 5856 5856 5856 5855 5855 5854 5854 5854 5854 5854 5853 5853 5852 5852 5852 5852 5852
5857 5858 5858 5858 5857 5857 5857 5857 5856 5856 5856 5855 5856 5856 5856 5855 5855 5855 5855 5855 5855 5855 5855 5854 5854 5854 5853 5853 5853 5853 5852 5852 5852 5851 5851 5851 5850 5850 5850 5850 5849 5849 5849 5849
5855 5855 5855 5855 5855 5855 5855 5855 5854 5854 5854 5854 5854 5854 5854 5853 5852 5852 5852 5852 5852 5852 5852 5851 5851 5851 5850 5849 5849 5849 5849 5848 5848 5848 5848 5848 5847 5847 5847 5846 5846 5846 5846 5846
5853 5853 5853 5853 5853 5853 5853 5853 5852 5852 5852 5852 5852 5851 5852 5851 5850 5850 5850 5849 5849 5848 5848 5848 5848 5847 5847 5846 5846 5845 5845 5845 5845 5845 5844 5844 5844 5843 5843 5843 5843 5843 5843 5843
5851 5851 5851 5851 5851 5851 5851 5851 5850 5850 5850 5850 5850 5849 5849 5848 5848 5847 5847 5846 5846 5846 5845 5845 5844 5844 5843 5843 5842 5842 5842 5841 5841 5841 5841 5841 5840 5840 5840 5840 5840 5840 5840 5840
5849 5849 5849 5849 5849 5849 5849 5849 5848 5848 5847 5848 5847 5846 5847 5845 5845 5844 5844 5843 5843 5842 5842 5841 5841 5840 5840 5839 5839 5838 5838 5838 5838 5837 5838 5837 5837 5836 5836 5837 5837 5837 5837 5837
5846 5847 5847 5846 5846 5846 5846 5846 5846 5846 5845 5845 5844 5843 5844 5842 5841 5841 5840 5840 5839 5838 5838 5837 5837 5837 5836 5835 5835 5835 5834 5834 5834 5834 5834 5834 5834 5833 5833 5834 5834 5834 5834 5834
5843 5844 5844 5844 5843 5844 5843 5842 5843 5842 5841 5841 5841 5841 5840 5838 5838 5837 5837 5836 5835 5834 5834 5833 5833 5833 5832 5832 5831 5831 5831 5831 5831 5831 5830 5831 5830 5830 5830 5831 5831 5831 5831 5830
5840 5840 5841 5840 5840 5840 5840 5840 5839 5838 5837 5837 5838 5837 5837 5835 5834 5834 5833 5832 5831 5831 5830 5830 5829 5828 5828 5827 5827 5827 5826 5826 5826 5826 5826 5826 5827 5827 5827 5827 5827 5827 5827 5827
5836 5837 5837 5837 5837 5837 5837 5836 5835 5834 5834 5833 5833 5836 5833 5831 5830 5830 5829 5828 5828 5827 5827 5826 5825 5824 5824 5823 5823 5823 5822 5822 5822 5822 5822 5822 5823 5823 5823 5824 5824 5824 5823 5823
5832 5832 5833 5833 5833 5832 5832 5832 5831 5831 5830 5829 5828 5832 5829 5827 5826 5825 5825 5824 5823 5823 5822 5822 5821 5821 5820 5819 5819 5819 5818 5818 5818 5818 5818 5818 5819 5819 5819 5819 5820 5820 5819 5819
5827 5828 5828 5828 5830 5829 5828 5827 5826 5826 5825 5824 5823 5827 5824 5823 5821 5821 5820 5819 5819 5818 5818 5817 5817 5816 5816 5815 5815 5815 5814 5814 5814 5814 5814 5814 5814 5815 5815 5815 5815 5815 5815 5814
5822 5822 5823 5824 5823 5823 5823 5822 5821 5821 5820 5820 5819 5820 5819 5818 5817 5816 5815 5815 5814 5814 5813 5813 5812 5812 5811 5811 5811 5810 5810 5810 5809 5809 5809 5809 5810 5810 5810 5810 5810 5810 5810 5809
5817 5817 5817 5817 5817 5817 5817 5817 5817 5816 5815 5815 5815 5814 5814 5813 5812 5811 5810 5809 5809 5809 5808 5808 5807 5807 5806 5806 5806 5805 5805 5805 5805 5805 5804 5804 5805 5805 5805 5805 5805 5805 5805 5804
5810 5811 5811 5812 5811 5811 5811 5812 5811 5811 5810 5810 5809 5809 5809 5808 5807 5806 5805 5804 5804 5803 5803 5802 5802 5801 5801 5801 5800 5800 5800 5800 5799 5799 5799 5799 5799 5800 5800 5800 5800 5800 5800 5799
5804 5804 5804 5805 5805 5805 5806 5807 5806 5806 5805 5805 5804 5805 5803 5802 5801 5800 5799 5798 5798 5797 5797 5796 5796 5796 5795 5795 5795 5794 5795 5795 5794 5794 5794 5793 5793 5794 5794 5794 5794 5795 5794 5794
5798 5798 5797 5798 5799 5798 5803 5801 5800 5800 5799 5799 5798 5798 5796 5796 5795 5794 5792 5791 5791 5791 5790 5790 5790 5790 5789 5789 5789 5789 5789 5789 5788 5788 5787 5787 5788 5788 5789 5789 5789 5789 5789 5788
5791 5791 5791 5791 5791 5791 5795 5795 5793 5793 5793 5793 5792 5791 5790 5789 5789 5788 5786 5785 5785 5784 5784 5783 5783 5783 5783 5783 5783 5783 5783 5783 5782 5782 5782 5782 5782 5782 5783 5783 5783 5783 5783 5783
5784 5784 5784 5784 5783 5784 5788 5788 5786 5786 5786 5787 5785 5785 5784 5783 5782 5782 5780 5778 5778 5777 5776 5776 5776 5776 5777 5777 5777 5777 5777 5776 5776 5776 5776 5776 5776 5776 5776 5777 5777 5777 5777 5777
5777 5777 5777 5776 5775 5777 5779 5779 5779 5780 5780 5779 5778 5777 5777 5775 5775 5774 5772 5771 5771 5770 5770 5769 5769 5769 5769 5770 5770 5770 5770 5770 5770 5770 5770 5770 5770 5770 5770 5771 5771 5771 5771 5771
5770 5770 5770 5769 5769 5772 5772 5771 5772 5772 5771 5771 5770 5770 5769 5768 5767 5766 5765 5764 5764 5763 5763 5763 5763 5763 5763 5763 5763 5763 5763 5763 5763 5763 5763 5763 5764 5764 5764 5764 5764 5764 5764 5764
5762 5763 5763 5763 5764 5764 5763 5763 5763 5763 5763 5763 5763 5763 5762 5761 5760 5758 5758 5757 5757 5756 5756 5756 5756 5756 5756 5756 5756 5757 5757 5756 5756 5756 5757 5757 5757 5757 5757 5758 5758 5758 5758 5758
5754 5754 5754 5755 5755 5756 5756 5755 5756 5756 5756 5756 5755 5755 5754 5753 5752 5751 5750 5750 5749 5749 5749 5749 5750 5750 5750 5750 5749 5750 5750 5749 5749 5749 5750 5750 5750 5750 5750 5751 5751 5751 5751 5750
5747 5746 5746 5746 5747 5747 5748 5748 5748 5748 5748 5748 5747 5747 5746 5746 5745 5744 5743 5743 5742 5742 5743 5743 5743 5743 5743 5742 5742 5742 5742 5742 5742 5742 5742 5742 5743 5743 5743 5744 5744 5743 5743 5743
5739 5738 5738 5738 5739 5739 5740 5739 5739 5739 5739 5739 5739 5739 5738 5738 5737 5736 5736 5735 5735 5735 5735 5735 5735 5735 5735 5735 5734 5734 5733 5733 5734 5734 5734 5735 5735 5735 5736 5736 5736 5736 5735 5735